period_start,C,m1,H,J0,J1,J2,J3,J4,J5,JA,JB,JC,JD,JJ,JK,JN,#
2018-06-09 00:00:12,0.03,1.14,0.00,29.59,32.91,35.59,13.80,46.67,1026.34,2002.00,2928.00,2733.88,3143.08,600.43,588.96,25.70,0000 0000 0000 0000 000000
2018-06-09 00:05:13,0.05,1.14,0.00,29.62,32.92,35.59,13.65,46.70,1026.11,2002.00,2927.26,2733.07,3142.49,599.74,588.20,25.75,0000 0000 0000 0000 000000
2018-06-09 00:10:15,0.03,1.14,0.00,29.64,32.95,35.58,13.72,46.70,1025.91,2002.00,2926.59,2732.78,3141.86,600.69,588.96,25.80,0000 0000 0000 0000 000000
2018-06-09 00:15:16,0.05,1.15,0.00,29.66,32.97,35.60,13.69,46.75,1025.91,2002.00,2925.69,2732.04,3141.04,600.05,588.26,25.85,0000 0000 0000 0000 000000
2018-06-09 00:20:17,0.05,1.15,0.00,29.67,32.98,35.63,13.72,46.78,1025.90,2001.98,2924.79,2731.33,3140.17,600.21,588.62,25.90,0000 0000 0000 0000 000000
2018-06-09 00:25:18,0.04,1.15,0.00,29.70,33.00,35.63,13.74,46.87,1025.90,2001.96,2923.75,2730.79,3139.39,599.86,588.14,25.95,0000 0000 0000 0000 000000
2018-06-09 00:30:20,0.03,1.15,0.00,29.72,33.02,35.65,13.69,46.83,1025.90,2001.88,2922.92,2730.05,3138.78,599.71,587.90,26.00,0000 0000 0000 0000 000000
2018-06-09 00:35:21,0.00,1.16,0.00,29.73,33.05,35.67,13.68,46.88,1025.86,2001.43,2922.03,2729.42,3137.95,600.05,588.17,26.05,0000 0000 0000 0000 000000
2018-06-09 00:40:22,0.02,1.16,0.00,29.77,33.07,35.67,13.62,46.77,1025.87,2001.08,2921.13,2728.92,3137.10,599.49,587.53,26.10,0000 0000 0000 0000 000000
2018-06-09 00:45:23,0.05,1.16,0.00,29.81,33.09,35.70,13.63,46.83,1025.84,2001.04,2920.35,2728.19,3136.56,600.05,587.90,26.15,0000 0000 0000 0000 000000
2018-06-09 00:50:25,0.05,1.16,0.00,29.86,33.12,35.74,13.74,46.87,1025.50,2001.01,2919.52,2727.68,3135.70,600.13,587.72,26.20,0000 0000 0000 0000 000000
2018-06-09 00:55:26,0.03,1.16,0.00,29.89,33.14,35.77,13.68,46.66,1025.60,2001.00,2918.58,2726.97,3134.99,600.21,587.95,26.25,0000 0000 0000 0000 000000
2018-06-09 01:00:26,0.06,1.17,0.00,29.91,33.16,35.80,13.72,46.63,1025.81,2001.00,2917.60,2726.18,3134.20,600.01,587.67,26.30,0000 0000 0000 0000 000000
2018-06-09 01:05:28,0.02,1.17,0.00,29.94,33.19,35.81,13.75,46.87,1025.83,2000.98,2916.85,2725.87,3133.68,600.56,588.09,26.35,0000 0000 0000 0000 000000
2018-06-09 01:10:30,0.04,1.17,0.00,29.97,33.21,35.85,13.66,46.80,1025.85,2000.97,2916.02,2725.08,3133.00,599.85,587.48,26.40,0000 0000 0000 0000 000000
2018-06-09 01:15:31,0.03,1.17,0.00,29.99,33.24,35.87,13.62,46.69,1025.84,2000.89,2915.14,2724.61,3132.16,599.92,587.51,26.45,0000 0000 0000 0000 000000
2018-06-09 01:20:32,0.03,1.17,0.00,30.02,33.26,35.88,13.72,46.75,1025.79,2000.67,2914.26,2724.01,3131.43,600.45,587.92,26.50,0000 0000 0000 0000 000000
2018-06-09 01:25:33,0.01,1.17,0.00,30.05,33.29,35.90,13.68,46.83,1025.83,2000.28,2913.37,2723.30,3130.69,600.06,587.55,26.55,0000 0000 0000 0000 000000
2018-06-09 01:30:35,0.02,1.17,0.00,30.08,33.31,35.94,13.72,46.81,1025.77,2000.04,2912.47,2722.79,3129.97,600.59,587.94,26.60,0000 0000 0000 0000 000000
2018-06-09 01:35:36,0.05,1.18,0.00,30.11,33.34,35.94,13.64,46.77,1025.73,2000.00,2911.54,2722.03,3129.10,599.39,586.63,26.65,0000 0000 0000 0000 000000
2018-06-09 01:40:37,0.06,1.18,0.00,30.13,33.36,35.99,13.59,46.56,1025.58,2000.00,2910.48,2721.26,3128.22,599.67,586.79,26.70,0000 0000 0000 0000 000000
2018-06-09 01:45:38,0.04,1.18,0.00,30.17,33.39,36.01,13.63,46.57,1025.42,2000.00,2909.45,2720.79,3127.40,600.03,587.09,26.75,0000 0000 0000 0000 000000
2018-06-09 01:50:40,0.04,1.19,0.00,30.21,33.41,36.03,13.79,46.70,1025.43,2000.00,2908.64,2720.05,3126.67,600.46,587.36,26.80,0000 0000 0000 0000 000000
2018-06-09 01:55:41,0.04,1.19,0.00,30.24,33.44,36.06,13.70,46.99,1025.42,1999.96,2907.84,2719.43,3125.95,600.00,586.86,26.85,0000 0000 0000 0000 000000
2018-06-09 02:00:42,0.02,1.19,0.00,30.26,33.46,36.08,13.76,46.77,1025.42,1999.84,2906.93,2718.86,3125.10,600.31,587.07,26.90,0000 0000 0000 0000 000000
2018-06-09 02:05:44,0.03,1.19,0.00,30.28,33.49,36.12,13.65,46.60,1025.41,1999.65,2906.05,2718.10,3124.37,600.21,586.99,26.95,0000 0000 0000 0000 000000
2018-06-09 02:10:45,-0.01,1.19,0.00,30.31,33.51,36.14,13.67,46.95,1025.29,1999.16,2905.21,2717.73,3123.88,599.90,586.48,27.00,0000 0000 0000 0000 000000
2018-06-09 02:15:46,0.04,1.19,0.00,30.34,33.53,36.17,13.64,46.66,1025.39,1999.03,2904.57,2717.05,3123.07,599.53,586.30,27.05,0000 0000 0000 0000 000000
2018-06-09 02:20:47,0.04,1.19,0.00,30.35,33.56,36.19,13.72,46.67,1025.40,1999.00,2903.89,2716.59,3122.46,600.21,586.93,27.10,0000 0000 0000 0000 000000
2018-06-09 02:25:49,0.03,1.20,0.00,30.36,33.58,36.22,13.68,46.69,1025.40,1999.00,2903.13,2716.02,3121.94,600.01,586.54,27.15,0000 0000 0000 0000 000000
2018-06-09 02:30:50,0.05,1.20,0.00,30.39,33.60,36.24,13.62,46.49,1025.40,1998.99,2902.34,2715.52,3121.11,599.69,586.25,27.20,0000 0000 0000 0000 000000
2018-06-09 02:35:51,0.02,1.20,0.00,30.42,33.62,36.26,13.68,46.70,1025.39,1998.97,2901.84,2715.01,3120.63,599.73,586.30,27.25,0000 0000 0000 0000 000000
2018-06-09 02:40:52,0.03,1.20,0.00,30.44,33.65,36.29,13.67,46.49,1025.38,1998.93,2901.04,2714.63,3120.01,600.15,586.70,27.30,0000 0000 0000 0000 000000
2018-06-09 02:45:53,-0.01,1.20,0.00,30.45,33.67,36.34,13.69,46.73,1025.33,1998.56,2900.39,2714.02,3119.41,599.76,586.08,27.35,0000 0000 0000 0000 000000
2018-06-09 02:50:55,0.02,1.20,0.00,30.47,33.70,36.34,13.61,46.67,1025.26,1998.23,2899.75,2713.54,3118.89,599.73,586.01,27.40,0000 0000 0000 0000 000000
2018-06-09 02:55:56,0.01,1.20,0.00,30.50,33.72,36.36,13.69,46.61,1025.06,1998.06,2899.02,2713.01,3118.16,600.09,586.20,27.46,0000 0000 0000 0000 000000
2018-06-09 03:00:57,0.04,1.20,0.00,30.53,33.75,36.39,13.62,46.47,1024.94,1998.00,2898.16,2712.62,3117.68,599.89,585.96,27.51,0000 0000 0000 0000 000000
2018-06-09 03:05:59,0.02,1.21,0.00,30.56,33.76,36.41,13.60,46.38,1024.94,1998.00,2897.95,2712.03,3117.03,599.98,585.97,27.56,0000 0000 0000 0000 000000
2018-06-09 03:11:00,0.03,1.21,0.00,30.57,33.79,36.44,13.72,46.59,1024.98,1998.00,2897.27,2711.82,3116.63,600.13,586.03,27.61,0000 0000 0000 0000 000000
2018-06-09 03:16:01,0.03,1.21,0.00,30.59,33.81,36.45,13.68,46.42,1024.93,1997.97,2896.73,2711.06,3116.01,600.33,586.12,27.66,0000 0000 0000 0000 000000
2018-06-09 03:21:03,0.04,1.21,0.00,30.61,33.84,36.47,13.71,46.34,1024.92,1997.93,2896.02,2710.71,3115.30,600.46,586.32,27.71,0000 0000 0000 0000 000000
2018-06-09 03:26:04,0.02,1.21,0.00,30.63,33.86,36.50,13.64,46.40,1024.92,1997.75,2895.42,2710.06,3114.92,599.79,585.66,27.76,0000 0000 0000 0000 000000
2018-06-09 03:31:06,-0.01,1.21,0.00,30.65,33.89,36.53,13.61,46.35,1024.92,1997.29,2894.84,2709.85,3114.13,600.04,585.88,27.81,0000 0000 0000 0000 000000
2018-06-09 03:36:07,0.02,1.21,0.00,30.68,33.91,36.55,13.64,46.48,1024.92,1997.10,2894.07,2709.09,3113.77,600.17,585.90,27.86,0000 0000 0000 0000 000000
2018-06-09 03:41:08,0.02,1.21,0.00,30.70,33.94,36.57,13.59,46.29,1024.92,1997.01,2893.56,2708.90,3113.07,599.87,585.57,27.91,0000 0000 0000 0000 000000
2018-06-09 03:46:10,0.04,1.22,0.00,30.72,33.96,36.59,13.64,46.32,1024.91,1997.00,2893.00,2708.21,3112.68,599.94,585.57,27.96,0000 0000 0000 0000 000000
2018-06-09 03:51:11,0.02,1.22,0.00,30.74,33.99,36.62,13.65,46.22,1024.86,1997.00,2892.37,2707.98,3112.02,600.09,585.67,28.01,0000 0000 0000 0000 000000
2018-06-09 03:56:12,0.03,1.22,0.00,30.75,34.01,36.64,13.67,46.55,1024.74,1997.00,2891.96,2707.39,3111.64,600.41,585.81,28.06,0000 0000 0000 0000 000000
2018-06-09 04:01:13,0.02,1.22,0.00,30.76,34.04,36.67,13.64,46.46,1024.81,1996.96,2891.27,2707.00,3111.02,600.00,585.58,28.11,0000 0000 0000 0000 000000
2018-06-09 04:06:14,0.01,1.22,0.00,30.79,34.06,36.69,13.73,46.57,1024.92,1996.93,2891.00,2706.89,3110.84,600.14,585.68,28.16,0000 0000 0000 0000 000000
2018-06-09 04:11:16,0.01,1.22,0.00,30.82,34.09,36.71,13.60,46.34,1024.87,1996.68,2890.45,2706.21,3110.12,600.03,585.44,28.21,0000 0000 0000 0000 000000
2018-06-09 04:16:17,-0.01,1.22,0.00,30.85,34.11,36.75,13.63,46.42,1024.74,1996.21,2889.99,2705.97,3109.80,600.04,585.41,28.26,0000 0000 0000 0000 000000
2018-06-09 04:21:18,0.02,1.22,0.00,30.87,34.14,36.76,13.66,46.54,1024.62,1996.04,2889.65,2705.61,3109.16,600.30,585.50,28.31,0000 0000 0000 0000 000000
2018-06-09 04:26:20,0.01,1.22,0.00,30.90,34.16,36.80,13.62,46.52,1024.47,1996.00,2889.03,2705.04,3108.99,600.08,585.09,28.36,0000 0000 0000 0000 000000
2018-06-09 04:31:21,0.01,1.22,0.00,30.90,34.19,36.80,13.61,46.52,1024.45,1996.00,2888.81,2704.98,3108.48,599.89,584.92,28.41,0000 0000 0000 0000 000000
2018-06-09 04:36:22,0.04,1.23,0.00,30.92,34.21,36.85,13.58,46.47,1024.43,1996.00,2888.14,2704.56,3108.03,600.01,584.90,28.46,0000 0000 0000 0000 000000
2018-06-09 04:41:24,0.01,1.23,0.00,30.96,34.24,36.87,13.63,46.41,1024.41,1995.99,2887.95,2704.04,3107.91,599.89,584.78,28.51,0000 0000 0000 0000 000000
2018-06-09 04:46:25,0.02,1.23,0.00,30.99,34.26,36.88,13.58,46.54,1024.28,1995.99,2887.52,2704.00,3107.33,599.82,584.63,28.56,0000 0000 0000 0000 000000
2018-06-09 04:51:26,0.01,1.23,0.00,31.00,34.28,36.89,13.63,46.67,1024.12,1995.98,2887.05,2703.92,3107.02,600.02,584.67,28.61,0000 0000 0000 0000 000000
2018-06-09 04:56:28,0.03,1.23,0.00,31.02,34.30,36.92,13.61,46.74,1023.95,1995.96,2886.76,2703.24,3106.86,599.96,584.50,28.66,0000 0000 0000 0000 000000
2018-06-09 05:01:29,-0.00,1.23,0.00,31.03,34.32,36.93,13.65,46.61,1023.94,1995.72,2886.12,2703.00,3106.16,600.17,584.77,28.71,0000 0000 0000 0000 000000
2018-06-09 05:06:30,-0.02,1.23,0.00,31.07,34.34,36.95,13.54,46.66,1023.94,1995.34,2885.85,2702.87,3105.99,599.97,584.35,28.76,0000 0000 0000 0000 000000
2018-06-09 05:11:32,0.03,1.23,0.00,31.10,34.36,36.97,13.70,46.54,1023.94,1995.12,2885.17,2702.16,3105.56,600.36,584.57,28.81,0000 0000 0000 0000 000000
2018-06-09 05:16:33,0.00,1.23,0.00,31.12,34.38,36.99,13.57,46.34,1023.94,1995.02,2884.96,2702.00,3105.03,599.74,584.11,28.86,0000 0000 0000 0000 000000
2018-06-09 05:21:34,0.01,1.23,0.00,31.14,34.40,37.01,13.60,46.45,1023.94,1995.00,2884.39,2701.94,3104.98,599.96,584.19,28.91,0000 0000 0000 0000 000000
2018-06-09 05:26:35,0.04,1.23,0.00,31.16,34.42,37.03,13.58,46.41,1023.94,1995.00,2884.02,2701.35,3104.34,599.97,584.15,28.96,0000 0000 0000 0000 000000
2018-06-09 05:31:37,0.00,1.23,0.00,31.19,34.44,37.05,13.57,46.42,1023.94,1995.00,2883.87,2701.01,3104.01,599.82,584.01,29.01,0000 0000 0000 0000 000000
2018-06-09 05:36:38,0.01,1.24,0.00,31.20,34.45,37.07,13.59,46.42,1023.93,1995.00,2883.22,2700.99,3103.90,600.01,584.19,29.06,0000 0000 0000 0000 000000
2018-06-09 05:41:40,0.17,1.24,0.00,31.22,34.47,37.09,13.50,46.36,1023.92,1994.98,2881.36,2699.70,3102.26,599.74,583.91,29.11,0000 0000 0000 0000 000000
2018-06-09 05:46:41,0.05,1.25,0.00,31.24,34.50,37.09,13.56,46.42,1023.94,1994.89,2879.05,2697.92,3100.13,599.95,583.99,29.16,0000 0000 0000 0000 000000
2018-06-09 05:51:42,0.03,1.25,0.00,31.26,34.51,37.13,13.57,46.27,1023.90,1994.83,2878.68,2697.22,3099.96,599.98,583.96,29.21,0000 0000 0000 0000 000000
2018-06-09 05:56:44,0.06,1.25,0.00,31.28,34.54,37.15,13.58,46.21,1023.64,1994.50,2877.10,2696.40,3098.68,599.73,583.62,29.26,0000 0000 0000 0000 000000
2018-06-09 06:01:45,0.01,1.25,0.00,31.31,34.56,37.17,13.59,46.30,1023.52,1994.15,2876.00,2695.34,3097.59,599.94,583.66,29.31,0000 0000 0000 0000 000000
2018-06-09 06:06:46,0.02,1.25,0.00,31.33,34.57,37.19,13.62,46.43,1023.49,1994.05,2875.39,2695.02,3097.04,600.29,584.10,29.36,0000 0000 0000 0000 000000
2018-06-09 06:11:47,0.01,1.25,0.00,31.36,34.59,37.19,13.61,46.30,1023.49,1994.00,2874.99,2694.89,3096.92,599.97,583.66,29.41,0000 0000 0000 0000 000000
2018-06-09 06:16:48,0.05,1.26,0.00,31.38,34.61,37.21,13.60,46.43,1023.46,1994.00,2874.49,2694.24,3096.27,600.24,583.82,29.46,0000 0000 0000 0000 000000
2018-06-09 06:21:49,0.00,1.26,0.00,31.41,34.63,37.23,13.51,46.27,1023.45,1994.00,2874.01,2694.00,3096.00,599.87,583.36,29.51,0000 0000 0000 0000 000000
2018-06-09 06:26:51,0.01,1.26,0.00,31.43,34.65,37.26,13.52,46.41,1023.45,1994.00,2873.81,2693.96,3095.80,599.90,583.45,29.56,0000 0000 0000 0000 000000
2018-06-09 06:31:52,0.05,1.26,0.00,31.46,34.67,37.26,13.59,46.49,1023.42,1993.98,2873.09,2693.34,3095.07,600.16,583.60,29.61,0000 0000 0000 0000 000000
2018-06-09 06:36:54,0.00,1.26,0.00,31.49,34.70,37.28,13.55,46.15,1023.44,1993.97,2872.93,2693.02,3094.99,599.96,583.25,29.66,0000 0000 0000 0000 000000
2018-06-09 06:41:55,0.02,1.26,0.00,31.50,34.71,37.30,13.63,46.30,1023.43,1993.92,2872.37,2692.99,3094.57,600.13,583.42,29.71,0000 0000 0000 0000 000000
2018-06-09 06:46:56,0.00,1.26,0.00,31.52,34.73,37.33,13.59,46.36,1023.21,1993.72,2872.02,2692.62,3094.05,600.01,583.17,29.76,0000 0000 0000 0000 000000
2018-06-09 06:51:57,-0.02,1.26,0.00,31.55,34.76,37.34,13.60,46.26,1023.30,1993.32,2871.80,2692.05,3093.96,600.36,583.43,29.81,0000 0000 0000 0000 000000
2018-06-09 06:56:59,0.00,1.26,0.00,31.57,34.77,37.35,13.56,46.19,1023.13,1993.05,2871.12,2691.99,3093.25,599.91,582.92,29.86,0000 0000 0000 0000 000000
2018-06-09 07:02:00,0.02,1.26,0.00,31.59,34.80,37.38,13.56,46.26,1023.05,1993.02,2870.96,2691.61,3093.00,600.03,582.92,29.91,0000 0000 0000 0000 000000
2018-06-09 07:07:01,0.03,1.26,0.00,31.62,34.82,37.39,13.54,46.17,1023.05,1993.00,2870.38,2691.03,3092.69,599.89,582.73,29.96,0000 0000 0000 0000 000000
2018-06-09 07:12:03,0.01,1.27,0.00,31.65,34.84,37.43,13.57,46.17,1022.97,1993.00,2870.00,2690.99,3092.04,600.07,582.80,30.01,0000 0000 0000 0000 000000
2018-06-09 07:17:04,0.01,1.27,0.00,31.70,34.86,37.45,13.55,46.16,1022.97,1992.99,2869.71,2690.74,3091.98,599.93,582.59,30.06,0000 0000 0000 0000 000000
2018-06-09 07:22:06,0.04,1.27,0.00,31.71,34.89,37.47,13.61,46.16,1022.96,1992.98,2869.09,2690.12,3091.50,600.17,582.64,30.11,0000 0000 0000 0000 000000
2018-06-09 07:27:07,0.00,1.27,0.00,31.75,34.91,37.49,13.51,46.13,1022.96,1992.96,2868.98,2690.00,3091.03,599.91,582.45,30.16,0000 0000 0000 0000 000000
2018-06-09 07:32:08,0.01,1.27,0.00,31.79,34.94,37.52,13.59,46.27,1022.96,1992.83,2868.41,2689.88,3090.96,599.85,582.31,30.21,0000 0000 0000 0000 000000
2018-06-09 07:37:09,0.01,1.27,0.00,31.82,34.96,37.56,13.49,46.31,1022.94,1992.57,2868.01,2689.14,3090.26,600.00,582.42,30.26,0000 0000 0000 0000 000000
2018-06-09 07:42:10,-0.03,1.27,0.00,31.86,34.99,37.58,13.64,46.15,1022.96,1992.21,2867.84,2689.00,3090.01,600.45,582.76,30.31,0000 0000 0000 0000 000000
2018-06-09 07:47:12,0.02,1.27,0.00,31.89,35.01,37.61,13.62,46.19,1022.96,1992.07,2867.12,2688.83,3089.69,600.04,582.28,30.36,0000 0000 0000 0000 000000
2018-06-09 07:52:13,0.03,1.27,0.00,31.91,35.04,37.65,13.55,46.19,1022.96,1992.01,2866.80,2688.14,3089.08,600.00,582.29,30.41,0000 0000 0000 0000 000000
2018-06-09 07:57:14,0.01,1.27,0.00,31.95,35.06,37.68,13.51,46.04,1022.96,1992.00,2866.05,2688.00,3088.94,599.87,582.08,30.46,0000 0000 0000 0000 000000
2018-06-09 08:02:16,0.03,1.27,0.00,31.99,35.09,37.72,13.62,46.10,1022.96,1992.00,2865.84,2687.71,3088.22,600.21,582.21,30.51,0000 0000 0000 0000 000000
2018-06-09 08:07:17,0.03,1.27,0.00,32.01,35.11,37.74,13.43,46.10,1022.85,1992.00,2865.11,2687.04,3087.96,599.82,581.85,30.56,0000 0000 0000 0000 000000
2018-06-09 08:12:18,0.01,1.28,0.00,32.04,35.14,37.78,13.56,46.26,1022.53,1991.97,2864.84,2687.00,3087.41,600.21,581.94,30.61,0000 0000 0000 0000 000000
2018-06-09 08:17:20,0.02,1.28,0.00,32.07,35.16,37.80,13.55,46.17,1022.52,1991.92,2864.19,2686.82,3087.01,600.20,581.81,30.66,0000 0000 0000 0000 000000
2018-06-09 08:22:21,-0.01,1.28,0.00,32.10,35.19,37.83,13.52,46.09,1022.50,1991.72,2863.91,2686.12,3086.82,600.08,581.63,30.71,0000 0000 0000 0000 000000
2018-06-09 08:27:22,-0.00,1.28,0.00,32.11,35.21,37.85,13.53,46.24,1022.51,1991.25,2863.06,2685.96,3086.04,599.88,581.40,30.76,0000 0000 0000 0000 000000
2018-06-09 08:32:23,0.03,1.28,0.00,32.12,35.24,37.89,13.49,46.18,1022.51,1991.07,2862.46,2685.23,3085.67,599.73,581.29,30.82,0000 0000 0000 0000 000000
2018-06-09 08:37:25,0.09,1.28,0.00,32.15,35.26,37.91,13.53,46.17,1022.49,1991.01,2860.18,2684.11,3084.15,599.87,581.42,30.87,0000 0000 0000 0000 000000
2018-06-09 08:42:26,0.04,1.28,0.00,32.15,35.29,37.94,13.48,45.92,1022.58,1991.00,2859.28,2683.70,3083.62,599.86,581.57,30.92,0000 0000 0000 0000 000000
2018-06-09 08:47:27,0.02,1.29,0.00,32.18,35.31,37.94,13.56,46.13,1022.92,1991.00,2859.00,2683.06,3083.04,600.18,581.94,30.97,0000 0000 0000 0000 000000
2018-06-09 08:52:29,0.01,1.29,0.00,32.20,35.33,37.98,13.54,46.09,1022.96,1990.99,2858.68,2683.00,3082.97,599.99,581.67,31.02,0000 0000 0000 0000 000000
2018-06-09 08:57:30,0.02,1.29,0.00,32.23,35.35,37.99,13.48,45.92,1022.89,1990.88,2858.05,2682.71,3082.31,599.92,581.52,31.07,0000 0000 0000 0000 000000
2018-06-09 09:02:31,-0.00,1.29,0.00,32.26,35.38,38.00,13.45,45.91,1022.59,1990.64,2857.97,2682.12,3082.01,599.82,581.16,31.12,0000 0000 0000 0000 000000
2018-06-09 09:07:32,-0.01,1.29,0.00,32.28,35.40,38.00,13.50,45.87,1022.56,1990.39,2857.52,2682.00,3081.84,600.02,581.22,31.17,0000 0000 0000 0000 000000
2018-06-09 09:12:34,0.00,1.29,0.00,32.30,35.42,37.98,13.50,45.88,1022.50,1990.04,2857.01,2681.83,3081.07,599.91,581.17,31.22,0000 0000 0000 0000 000000
2018-06-09 09:17:35,0.03,1.29,0.00,32.32,35.45,38.02,13.53,45.92,1022.48,1990.00,2856.66,2681.12,3080.94,599.95,581.12,31.27,0000 0000 0000 0000 000000
2018-06-09 09:22:36,0.02,1.29,0.00,32.37,35.48,38.03,13.46,45.92,1022.48,1990.00,2856.04,2680.99,3080.31,599.66,580.83,31.32,0000 0000 0000 0000 000000
2018-06-09 09:27:37,0.02,1.29,0.00,32.40,35.50,38.05,13.56,45.93,1022.48,1990.00,2855.87,2680.66,3080.01,599.68,580.82,31.37,0000 0000 0000 0000 000000
2018-06-09 09:32:38,0.02,1.29,0.00,32.42,35.53,38.07,13.44,46.10,1022.44,1989.99,2855.36,2680.06,3079.80,599.71,580.69,31.42,0000 0000 0000 0000 000000
2018-06-09 09:37:39,0.01,1.29,0.00,32.46,35.56,38.10,13.49,46.12,1022.20,1989.92,2855.00,2680.00,3079.09,600.00,580.74,31.47,0000 0000 0000 0000 000000
2018-06-09 09:42:40,0.00,1.29,0.00,32.49,35.59,38.12,13.58,46.20,1022.12,1989.74,2854.63,2679.78,3078.98,600.31,581.04,31.52,0000 0000 0000 0000 000000
2018-06-09 09:47:42,-0.00,1.29,0.00,32.52,35.62,38.15,13.53,46.10,1022.28,1989.41,2854.11,2679.22,3078.60,599.83,580.57,31.57,0000 0000 0000 0000 000000
2018-06-09 09:52:43,-0.02,1.29,0.00,32.56,35.65,38.19,13.52,46.08,1022.24,1989.10,2853.97,2678.99,3078.03,600.32,580.80,31.62,0000 0000 0000 0000 000000
2018-06-09 09:57:45,0.02,1.29,0.00,32.59,35.68,38.21,13.48,45.92,1022.23,1989.00,2853.52,2678.85,3077.94,599.69,580.16,31.67,0000 0000 0000 0000 000000
2018-06-09 10:02:46,0.04,1.30,0.00,32.61,35.71,38.25,13.46,45.92,1022.37,1989.00,2853.03,2678.11,3077.20,600.23,580.63,31.72,0000 0000 0000 0000 000000
2018-06-09 10:07:47,0.00,1.30,0.00,32.64,35.74,38.27,13.58,46.04,1022.40,1988.99,2852.84,2678.00,3076.99,600.20,580.71,31.77,0000 0000 0000 0000 000000
2018-06-09 10:12:48,0.03,1.30,0.00,32.68,35.77,38.32,13.48,45.96,1022.28,1988.94,2852.11,2677.67,3076.56,600.07,580.45,31.82,0000 0000 0000 0000 000000
2018-06-09 10:17:50,-0.00,1.30,0.00,32.70,35.81,38.35,13.58,45.90,1022.32,1988.77,2851.90,2677.07,3076.03,600.07,580.48,31.87,0000 0000 0000 0000 000000
2018-06-09 10:22:51,-0.02,1.30,0.00,32.73,35.84,38.37,13.55,45.99,1022.08,1988.35,2851.21,2676.97,3075.74,600.22,580.28,31.92,0000 0000 0000 0000 000000
2018-06-09 10:27:53,0.02,1.30,0.00,32.76,35.88,38.37,13.54,45.77,1022.05,1988.04,2850.89,2676.28,3075.06,600.04,580.17,31.97,0000 0000 0000 0000 000000
2018-06-09 10:32:54,0.02,1.30,0.00,32.80,35.92,38.35,13.52,45.85,1022.21,1988.00,2850.15,2676.00,3074.66,600.06,580.14,32.02,0000 0000 0000 0000 000000
2018-06-09 10:37:55,0.02,1.30,0.00,32.84,35.96,38.42,13.41,45.83,1022.11,1988.00,2849.96,2675.76,3074.04,599.72,579.71,32.07,0000 0000 0000 0000 000000
2018-06-09 10:42:56,0.04,1.30,0.00,32.86,36.00,38.39,13.44,45.84,1022.06,1987.98,2849.18,2675.07,3073.73,599.73,579.80,32.12,0000 0000 0000 0000 000000
2018-06-09 10:47:58,0.00,1.30,0.00,32.90,36.05,38.48,13.51,45.88,1022.01,1987.87,2848.93,2674.85,3073.05,600.12,579.90,32.17,0000 0000 0000 0000 000000
2018-06-09 10:52:59,-0.01,1.30,0.00,32.92,36.10,38.72,13.49,45.88,1022.00,1987.37,2848.20,2674.12,3072.72,600.08,579.84,32.22,0000 0000 0000 0000 000000
2018-06-09 10:58:00,0.00,1.30,0.00,32.95,36.15,39.00,13.53,45.83,1021.99,1987.02,2847.75,2673.86,3072.01,599.82,579.53,32.27,0000 0000 0000 0000 000000
2018-06-09 11:03:01,0.04,1.30,0.00,32.97,36.21,39.34,13.52,45.94,1021.99,1987.00,2847.03,2673.09,3071.33,599.73,579.29,32.32,0000 0000 0000 0000 000000
2018-06-09 11:08:03,0.02,1.31,0.00,32.99,36.27,39.69,13.52,45.91,1021.98,1986.93,2846.43,2672.82,3070.97,600.11,579.83,32.37,0000 0000 0000 0000 000000
2018-06-09 11:13:04,-0.00,1.31,0.00,33.00,36.33,39.96,13.57,45.86,1021.98,1986.58,2845.95,2672.10,3070.26,600.43,580.06,32.42,0000 0000 0000 0000 000000
2018-06-09 11:18:05,-0.00,1.31,0.00,33.00,36.39,40.09,13.53,45.84,1021.97,1986.04,2845.17,2671.79,3069.79,599.89,579.49,32.47,0000 0000 0000 0000 000000
2018-06-09 11:23:07,0.03,1.31,0.00,33.00,36.45,40.08,13.56,45.75,1021.88,1986.00,2844.79,2671.06,3069.05,600.31,579.65,32.52,0000 0000 0000 0000 000000
2018-06-09 11:28:08,0.02,1.31,0.00,33.00,36.50,40.12,13.59,45.83,1021.61,1985.96,2844.06,2670.87,3068.61,600.10,579.49,32.57,0000 0000 0000 0000 000000
2018-06-09 11:33:09,0.00,1.31,0.00,33.00,36.56,40.06,13.58,45.82,1021.56,1985.69,2843.74,2670.20,3068.02,599.89,579.27,32.62,0000 0000 0000 0000 000000
2018-06-09 11:38:10,-0.03,1.31,0.00,32.98,36.61,39.81,13.44,45.71,1021.60,1985.07,2843.03,2669.97,3067.58,599.83,579.29,32.67,0000 0000 0000 0000 000000
2018-06-09 11:43:12,0.04,1.31,0.00,32.97,36.65,39.69,13.56,45.69,1021.71,1985.00,2842.60,2669.45,3067.02,599.95,579.53,32.73,0000 0000 0000 0000 000000
2018-06-09 11:48:13,0.02,1.31,0.00,32.95,36.69,39.79,13.47,45.99,1021.62,1985.00,2842.00,2669.01,3066.65,599.67,579.18,32.78,0000 0000 0000 0000 000000
2018-06-09 11:53:14,0.01,1.31,0.00,32.92,36.71,39.95,13.53,46.02,1021.52,1984.90,2841.40,2668.88,3066.03,600.23,579.75,32.83,0000 0000 0000 0000 000000
2018-06-09 11:58:15,-0.01,1.31,0.00,32.91,36.73,39.98,13.50,45.85,1021.50,1984.50,2841.00,2668.16,3065.84,600.17,579.66,32.88,0000 0000 0000 0000 000000
2018-06-09 12:03:17,0.01,1.31,0.00,32.90,36.74,39.87,13.58,45.89,1021.50,1984.32,2840.78,2668.00,3065.24,599.73,579.48,32.93,0000 0000 0000 0000 000000
2018-06-09 12:08:18,0.00,1.31,0.00,32.85,36.75,39.75,13.56,45.93,1021.49,1984.18,2840.15,2668.00,3065.02,600.19,579.73,32.98,0000 0000 0000 0000 000000
2018-06-09 12:13:20,-0.00,1.31,0.00,32.82,36.75,39.67,13.54,45.88,1021.48,1984.06,2840.00,2667.92,3064.97,599.95,579.74,33.03,0000 0000 0000 0000 000000
2018-06-09 12:18:21,0.01,1.31,0.00,32.79,36.73,39.59,13.53,45.75,1021.35,1984.04,2839.93,2667.70,3064.88,599.79,579.33,33.08,0000 0000 0000 0000 000000
2018-06-09 12:23:22,0.02,1.31,0.00,32.75,36.73,39.52,13.44,45.85,1021.09,1984.06,2839.61,2667.32,3064.57,600.09,579.67,33.13,0000 0000 0000 0000 000000
2018-06-09 12:28:24,0.02,1.31,0.00,32.73,36.70,39.39,13.56,45.86,1021.03,1984.06,2839.11,2667.09,3064.19,599.86,579.46,33.18,0000 0000 0000 0000 000000
2018-06-09 12:33:25,0.00,1.31,0.00,32.70,36.69,39.31,13.48,45.86,1021.01,1984.08,2839.00,2667.00,3064.04,599.71,579.51,33.23,0000 0000 0000 0000 000000
2018-06-09 12:38:26,0.00,1.31,0.00,32.70,36.67,39.18,13.64,45.99,1021.00,1984.08,2839.00,2667.00,3064.01,600.52,580.06,33.28,0000 0000 0000 0000 000000
2018-06-09 12:43:28,0.02,1.32,0.00,32.69,36.64,39.14,13.49,45.86,1020.73,1984.22,2838.94,2667.00,3064.00,599.82,579.28,33.33,0000 0000 0000 0000 000000
2018-06-09 12:48:29,0.03,1.32,0.00,32.67,36.62,39.04,13.54,46.08,1020.54,1984.46,2838.74,2667.00,3064.00,600.05,579.42,33.38,0000 0000 0000 0000 000000
2018-06-09 12:53:31,0.03,1.32,0.00,32.64,36.60,39.04,13.53,46.09,1020.52,1984.70,2838.31,2667.00,3064.00,600.04,579.58,33.43,0000 0000 0000 0000 000000